EW0802 Weather Reports


Display with metric or nautical units.
time (UTC)temp
F
wind
direction
speed
MPH
gust
MPH
rain 1hr
in
rain 24hr
in
rain mn
in
humidity
%
barometer
mb
20260905134551 79 266 0.0 0.0 0.00 0.00 0.00 80 1012.5
20260905133051 79 174 0.0 0.0 0.00 0.00 0.00 80 1012.4
20260905131552 78 162 0.0 0.0 0.00 0.00 0.00 81 1012.4
20260905130035 78 147 0.0 3.0 0.00 0.00 0.00 81 1012.2
20260905124533 77 173 0.0 3.0 0.00 0.00 0.00 81 1011.8
20260905123031 77 165 0.0 2.0 0.00 0.00 0.00 81 1011.7
20260905121528 77 135 0.0 1.0 0.00 0.00 0.00 80 1011.9
20260905120028 77 136 0.0 1.0 0.00 0.00 0.00 80 1011.8
20260905114538 77 167 0.0 1.0 0.00 0.00 0.00 80 1011.8
20260905113024 78 167 0.0 0.0 0.00 0.00 0.00 79 1011.8
20260905111523 78 170 0.0 1.0 0.00 0.00 0.00 79 1011.7
20260905110023 78 175 0.0 0.0 0.00 0.00 0.00 78 1011.7
20260905104520 79 175 0.0 0.0 0.00 0.00 0.00 78 1011.6
20260905103029 79 175 0.0 0.0 0.00 0.00 0.00 78 1011.8
20260905101517 79 175 0.0 0.0 0.00 0.00 0.00 77 1011.7
20260905100016 79 145 0.0 1.0 0.00 0.00 0.00 77 1011.5
20260905094514 80 123 0.0 1.0 0.00 0.00 0.00 76 1011.6
20260905093013 80 141 0.0 0.0 0.00 0.00 0.00 75 1011.4
20260905091512 80 141 0.0 0.0 0.00 0.00 0.00 75 1011.4
20260905090010 81 141 0.0 3.0 0.00 0.00 0.00 74 1011.3
20260905084514 81 180 0.0 1.0 0.00 0.00 0.00 73 1011.2
20260905083007 82 142 0.0 2.0 0.00 0.00 0.00 72 1011.2
20260905081504 82 203 0.0 2.0 0.00 0.00 0.00 71 1011.3
20260905080003 83 156 0.0 0.0 0.00 0.00 0.00 70 1011.2
20260905074505 83 153 0.0 4.0 0.00 0.00 0.00 70 1011.1
20260905073107 83 226 0.0 3.0 0.00 0.00 0.00 70 1011.2
20260905071558 83 177 1.0 6.0 0.00 0.00 0.00 69 1011.3
20260905070056 84 188 0.0 0.0 0.00 0.00 0.00 68 1011.5
20260905064609 84 151 0.0 4.0 0.00 0.00 0.00 67 1011.5
20260905063058 85 261 0.0 5.0 0.00 0.00 0.00 67 1011.7
20260905061613 85 170 0.0 5.0 0.00 0.00 0.00 65 1011.7
20260905060051 85 169 1.0 6.0 0.00 0.00 0.00 65 1011.7
20260905054548 86 125 0.0 5.0 0.00 0.00 0.00 64 1011.5
20260905053045 86 142 1.0 5.0 0.00 0.00 0.00 63 1011.4
20260905051559 86 87 2.0 7.0 0.00 0.00 0.00 63 1011.4
20260905050041 87 120 1.0 6.0 0.00 0.00 0.00 62 1011.4
20260905044551 87 154 2.0 6.0 0.00 0.00 0.00 61 1011.3
20260905043039 87 169 3.0 9.0 0.00 0.00 0.00 60 1011.4
20260905041539 88 78 1.0 4.0 0.00 0.00 0.00 59 1011.3
20260905040047 88 136 2.0 9.0 0.00 0.00 0.00 58 1011.4
20260905034555 89 198 2.0 9.0 0.00 0.00 0.00 58 1011.4
20260905033056 89 137 1.0 9.0 0.00 0.00 0.00 57 1011.5
20260905031538 89 170 0.0 7.0 0.00 0.00 0.00 56 1011.3
20260905030037 90 171 2.0 7.0 0.00 0.00 0.00 55 1011.2
20260905024545 90 170 2.0 7.0 0.00 0.00 0.00 53 1011.0
20260905023108 91 219 1.0 5.0 0.00 0.00 0.00 51 1010.7
20260905021535 91 98 1.0 5.0 0.00 0.00 0.00 49 1010.5
20260905020035 92 171 1.0 4.0 0.00 0.00 0.00 48 1010.2
20260905014539 92 138 0.0 3.0 0.00 0.00 0.00 48 1010.1
20260905013033 93 162 1.0 5.0 0.00 0.00 0.00 47 1009.8
20260905011533 93 92 1.0 6.0 0.00 0.00 0.00 46 1009.7
20260905010037 93 32 1.0 5.0 0.00 0.00 0.00 46 1009.6
20260905004531 94 200 2.0 6.0 0.00 0.00 0.00 46 1009.3
20260905003031 94 155 2.0 8.0 0.00 0.00 0.00 46 1009.1
20260905001531 95 127 1.0 11.0 0.00 0.00 0.00 45 1009.0
20260905000030 96 139 2.0 6.0 0.00 0.00 0.00 44 1009.0
20260904234534 97 56 1.0 9.0 0.00 0.00 0.00 45 1008.9
20260904233028 98 121 1.0 9.0 0.00 0.00 0.00 42 1008.9
20260904231528 99 111 2.0 8.0 0.00 0.00 0.00 40 1008.9
20260904230027 100 91 1.0 5.0 0.00 0.00 0.00 39 1009.0
20260904224528 100 131 2.0 8.0 0.00 0.00 0.00 39 1008.9
20260904223024 100 115 0.0 7.0 0.00 0.00 0.00 39 1009.1
20260904221520 99 271 0.0 7.0 0.00 0.00 0.00 40 1009.1
20260904220027 99 75 0.0 10.0 0.00 0.00 0.00 40 1009.3
20260904214519 100 291 1.0 9.0 0.00 0.00 0.00 39 1009.3
20260904213017 99 178 1.0 4.0 0.00 0.00 0.00 40 1009.4
20260904211514 99 96 1.0 6.0 0.00 0.00 0.00 41 1009.7
20260904210018 99 111 2.0 7.0 0.00 0.00 0.00 40 1009.9
20260904204510 99 225 1.0 6.0 0.00 0.00 0.00 41 1010.0
20260904203007 99 109 1.0 5.0 0.00 0.00 0.00 42 1010.2
20260904201505 99 85 2.0 8.0 0.00 0.00 0.00 42 1010.3
20260904200100 99 80 0.0 5.0 0.00 0.00 0.00 42 1010.6
20260904194603 98 94 1.0 8.0 0.00 0.00 0.00 43 1010.9
20260904193056 97 141 3.0 8.0 0.00 0.00 0.00 43 1011.1
20260904191551 96 163 2.0 8.0 0.00 0.00 0.00 47 1011.3
20260904190050 96 132 1.0 7.0 0.00 0.00 0.00 46 1011.5
20260904184556 96 144 3.0 8.0 0.00 0.00 0.00 47 1011.7
20260904183048 96 145 0.0 9.0 0.00 0.00 0.00 49 1011.8
20260904181555 97 218 2.0 7.0 0.00 0.00 0.00 49 1012.0
20260904180048 96 74 2.0 7.0 0.00 0.00 0.00 51 1012.2
20260904174602 94 144 1.0 5.0 0.00 0.00 0.00 53 1012.3
20260904173036 93 163 2.0 7.0 0.00 0.00 0.00 54 1012.6
20260904171533 92 68 1.0 8.0 0.00 0.00 0.00 54 1012.8
20260904170032 92 160 1.0 7.0 0.00 0.00 0.00 55 1013.0
20260904164530 92 159 1.0 6.0 0.00 0.00 0.00 56 1013.0
20260904163026 91 142 2.0 9.0 0.00 0.00 0.00 57 1012.9
20260904161522 90 268 0.0 8.0 0.00 0.00 0.00 61 1013.0
20260904160022 90 235 1.0 4.0 0.00 0.00 0.00 63 1013.0
20260904154516 89 149 1.0 3.0 0.00 0.00 0.00 65 1013.0
20260904153012 87 198 0.0 7.0 0.00 0.00 0.00 68 1013.0
20260904151507 86 95 2.0 8.0 0.00 0.00 0.00 72 1012.8
20260904150009 84 215 0.0 9.0 0.00 0.00 0.00 77 1012.9
20260904144559 82 42 0.0 4.0 0.00 0.00 0.00 81 1013.0
20260904143055 81 121 2.0 7.0 0.00 0.00 0.00 82 1013.0
20260904141554 80 200 0.0 8.0 0.00 0.00 0.00 83 1013.0
20260904140052 80 140 1.0 7.0 0.00 0.00 0.00 84 1013.0